Regional Weather Roundup
Issued by NWS

Home | Current Version | Previous Version | Text Only | Print | Product List | Glossary Off
Versions: 1 2 3 4 5 6 7 8 9 10 11 12 13 14 15 16 17 18 19 20 21 22 23 24 25 26 27 28 29 30 31 32 33 34 35 36 37 38 39 40 41 42 43 44 45 46 47 48 49 50

000
ASUS45 KPSR 282010
RWRAZ

ARIZONA HOURLY REGIONAL WEATHER ROUNDUP
NATIONAL WEATHER SERVICE PHOENIX AZ
100 PM MST TUE JUL 28 2015

NOTE: FAIR INDICATES FEW OR NO CLOUDS BELOW 12,000 FEET WITH NO
SIGNIFICANT WEATHER AND/OR OBSTRUCTIONS TO VISIBILITY.

AZZ001>003-036-282100-
NORTHWEST ARIZONA

CITY           SKY/WX    TMP DP  RH WIND       PRES   REMARKS
BULLHEAD CITY  SUNNY    102  36  10 SW8       29.84F
KINGMAN        SUNNY     95  30  10 SW14G22   30.04F
$$

AZZ004>008-015-016-018-282100-
NORTH CENTRAL ARIZONA

CITY           SKY/WX    TMP DP  RH WIND       PRES   REMARKS
GRAND CANYON   SUNNY     83  26  12 W12       30.28S
WILLIAMS       SUNNY     82  27  13 VRB6G15   30.34F
PRESCOTT       MOSUNNY   87  41  19 VRB3      30.15F
FLAGSTAFF      MOSUNNY   80  35  19 W10G20    30.30F
PAYSON         CLOUDY    84  50  30 SW7       30.19S
PAGE           SUNNY     91  25   9 NE7       30.08F
$$

AZZ009>014-017-282100-
NORTHEAST ARIZONA

CITY           SKY/WX    TMP DP  RH WIND       PRES   REMARKS
WINSLOW        PTSUNNY   89  45  21 VRB5      30.14F
SAINT JOHNS    MOSUNNY   84  44  24 VRB7      30.18F
WINDOW ROCK    CLOUDY    79  41  25 SW7       30.28F
SHOW LOW       PTSUNNY   79  45  29 NW8       30.26S
$$

AZZ023-282100-
GREATER PHOENIX AREA

CITY           SKY/WX    TMP DP  RH WIND       PRES   REMARKS
PHOENIX        PTSUNNY  100  54  21 VRB3      29.85F
GLENDALE       PTSUNNY  100  57  23 E6        29.88F
LUKE AFB       MOSUNNY  100  55  22 S2        29.85F
DEER VALLEY    PTSUNNY   96  56  26 VRB3      29.88F
SCOTTSDALE     PTSUNNY   98  53  22 VRB5      29.90F
MESA-FALCON    PTSUNNY  100  54  20 SW6       29.87F
MESA-GATEWAY   MOSUNNY   99  55  23 W6        29.89F
CHANDLER       SUNNY    100  54  20 SW12      29.86F
$$

AZZ027-028-282100-
SOUTHWEST MARICOPA COUNTY AND PINAL COUNTY

CITY           SKY/WX    TMP DP  RH WIND       PRES   REMARKS
CASA GRANDE    SUNNY     99  55  23 W8        29.87F
GILA BEND      MOSUNNY  102  62  26 W12       29.82F HX 103
$$

AZZ503-504-507>509-282100-
SOUTHEAST ARIZONA

CITY           SKY/WX    TMP DP  RH WIND       PRES   REMARKS
TUCSON         SUNNY    100  56  23 NE7       29.95F
DAVIS-MONTHAN  SUNNY     97  59  28 NW9       29.94F
RYAN FIELD     SUNNY     97  59  28 N10       29.94
NOGALES        PTSUNNY   93  61  34 VRB3      30.04F
SIERRA VISTA   SUNNY     88  53  29 VRB3      30.11F
DOUGLAS          N/A    N/A N/A N/A MISG      30.05F
SAFFORD        PTSUNNY   96  50  20 E10       29.97F
$$

AZZ020-021-025-026-031-282100-
SOUTHWEST ARIZONA

CITY           SKY/WX    TMP DP  RH WIND       PRES   REMARKS
YUMA           MOSUNNY  101  62  27 VRB7      29.79F HX 102
$$

CAZ031-033-041-043-047-048-061-282100-
SOUTHERN CALIFORNIA

CITY           SKY/WX    TMP DP  RH WIND       PRES   REMARKS
DOWNTOWN L.A.  SUNNY     83  63  50 VRB3      29.88S
L.A. AIRPORT   SUNNY     74  62  66 W12       29.90F
SAN DIEGO      MOSUNNY   76  60  57 W10       29.91F
BURBANK        SUNNY     86  58  38 VRB5      29.88F
ONTARIO        SUNNY     89  55  31 VRB6      29.89F
RIVERSIDE      SUNNY     89  55  31 W8        29.88F
PALM SPRINGS   SUNNY    100  46  16 VRB5      29.83F
EL CENTRO NAS  MOSUNNY  101  53  20 SE7       29.80F
IMPERIAL       SUNNY    100  64  30 N7        29.78F HX 102
BLYTHE         SUNNY    102  56  21 E5        29.81F HX 101
NEEDLES        SUNNY    106  40  10 S8        29.84F HX 100
$$

NVZ020-UTZ003-282100-
SOUTHERN NEVADA-UTAH

CITY           SKY/WX    TMP DP  RH WIND       PRES   REMARKS
LAS VEGAS      SUNNY     98  29   8 CALM      29.91F
SALT LAKE CITY SUNNY     73  22  14 NW10      30.25F
$$

NMZ009-TXZ055-282100-
NEW MEXICO-WEST TEXAS

CITY           SKY/WX    TMP DP  RH WIND       PRES   REMARKS
ALBUQUERQUE    MOSUNNY   92  43  18 VRB5      30.13F
EL PASO        MOSUNNY   95  52  23 S8        30.01F
$$


........................KEY........................
SKY/WX - SKY CONDITION/WEATHER
TMP    - TEMPERATURE IN FAHRENHEIT
DP     - DEW POINT IN FAHRENHEIT
RH     - RELATIVE HUMIDITY IN PERCENT
WIND   - DIRECTION AND SPEED IN MILES PER HOUR (MPH)
VRB    - VARIABLE WIND DIRECTION
PRES   - MEAN SEA LEVEL PRESSURE IN INCHES OF MERCURY
         F - FALLING PRESSURE   R - RISING PRESSURE
         S - STEADY PRESSURE
VSB    - VISIBILITY IN MILES
HX     - HEAT INDEX IN FAHRENHEIT
WCI    - WIND CHILL INDEX IN FAHRENHEIT
TC     - TEMPERATURE IN CELSIUS WHICH IS ALSO KNOWN AS
         TEMPERATURE IN CENTIGRADE
AFB    - AIR FORCE BASE
         LUKE AFB IS LUKE AIR FORCE BASE
         DAVIS-MONTHAN IS DAVIS-MONTHAN AIR FORCE BASE
NAS    - NAVAL AIR STATION
         EL CENTRO NAS IS EL CENTRO NAVAL AIR STATION
N/A    - NOT AVAILABLE



USA.gov is the U.S. government's official web portal to all federal, state and local government web resources and services.